Powrót do katalogu

STARLINK-2570

AktywnyŁącznośćVLEO
NORAD 48405·PAYLOAD·🇺🇸 United States

Wystrzelony May 4, 2021 z Cape Canaveral Space Force Station

Loading…

Następne Przeloty (najbliższe 24 godziny)

TLE

ŚwieżeSource: CelesTrak SupGP

Epoka: Sep 14, 2026, 21:35 UTC

1 48405C 21038BE  26257.89979167 -.00027861  00000+0 -89594-3 0  2573
2 48405  53.1603 172.3048 0001317  94.5517 294.4908 15.31716083    11

Śledź STARLINK-2570 w czasie rzeczywistym z AllMySat

Download on the App Store